TimeCST,TemperatureF,Dew PointF,Humidity,Sea Level PressureIn,VisibilityMPH,Wind Direction,Wind SpeedMPH,Gust SpeedMPH,PrecipitationIn,Events,Conditions,WindDirDegrees,DateUTC
12:53 AM,-8.0,-11.9,83,30.50,10.0,SSE,4.6,-,N/A,,Clear,160,2014-01-03 06:53:00
1:53 AM,-6.0,-11.0,79,30.50,10.0,SSE,3.5,-,N/A,,Clear,150,2014-01-03 07:53:00
2:53 AM,-9.0,-13.0,83,30.49,10.0,SE,5.8,-,N/A,,Clear,130,2014-01-03 08:53:00
3:53 AM,-9.0,-13.0,83,30.46,10.0,SSE,4.6,-,N/A,,Clear,150,2014-01-03 09:53:00
4:53 AM,-9.9,-14.1,82,30.44,10.0,SE,5.8,-,N/A,,Clear,140,2014-01-03 10:53:00
5:53 AM,-9.0,-13.0,83,30.41,10.0,SE,5.8,-,N/A,,Scattered Clouds,140,2014-01-03 11:53:00
6:53 AM,-7.1,-11.0,83,30.37,10.0,SE,4.6,-,N/A,,Mostly Cloudy,140,2014-01-03 12:53:00
7:53 AM,-2.0,-7.1,79,30.34,10.0,South,11.5,19.6,N/A,,Scattered Clouds,180,2014-01-03 13:53:00
8:53 AM,1.9,-6.0,69,30.30,10.0,South,12.7,18.4,N/A,,Scattered Clouds,170,2014-01-03 14:53:00
9:53 AM,3.9,-4.0,70,30.26,9.0,South,21.9,28.8,N/A,,Clear,170,2014-01-03 15:53:00
10:53 AM,7.0,-2.0,67,30.19,10.0,South,21.9,32.2,N/A,,Scattered Clouds,170,2014-01-03 16:53:00
11:53 AM,9.0,-0.0,67,30.11,10.0,South,17.3,28.8,N/A,,Overcast,170,2014-01-03 17:53:00
12:30 PM,10.4,1.4,67,29.97,9.0,South,25.3,31.1,N/A,,Overcast,170,2014-01-03 18:30:00
12:53 PM,12.0,1.9,64,30.03,9.0,South,21.9,32.2,N/A,,Overcast,170,2014-01-03 18:53:00
1:16 PM,12.2,1.4,62,29.90,9.0,South,28.8,36.8,N/A,,Overcast,170,2014-01-03 19:16:00
1:53 PM,14.0,3.0,62,29.95,10.0,South,21.9,31.1,N/A,,Overcast,170,2014-01-03 19:53:00
2:53 PM,16.0,5.0,62,29.89,10.0,South,23.0,32.2,N/A,,Partly Cloudy,180,2014-01-03 20:53:00
3:53 PM,16.0,6.1,65,29.87,6.0,South,26.5,36.8,N/A,,Haze,180,2014-01-03 21:53:00
4:53 PM,16.0,7.0,68,29.83,7.0,South,26.5,36.8,N/A,,Clear,180,2014-01-03 22:53:00
5:53 PM,17.1,8.1,68,29.81,10.0,South,18.4,28.8,N/A,,Clear,170,2014-01-03 23:53:00
6:53 PM,18.0,9.0,68,29.79,10.0,South,13.8,25.3,N/A,,Clear,170,2014-01-04 00:53:00
7:53 PM,18.0,9.0,68,29.77,10.0,SSE,15.0,-,N/A,,Clear,150,2014-01-04 01:53:00
8:53 PM,19.0,10.0,68,29.75,10.0,SSE,13.8,19.6,N/A,,Clear,150,2014-01-04 02:53:00
9:53 PM,19.9,10.9,68,29.73,10.0,South,13.8,21.9,N/A,,Clear,170,2014-01-04 03:53:00
10:53 PM,19.9,10.9,68,29.70,10.0,South,15.0,25.3,N/A,,Clear,170,2014-01-04 04:53:00
11:53 PM,19.9,12.0,71,29.67,10.0,South,16.1,24.2,N/A,,Clear,170,2014-01-04 05:53:00